QPF
0.00 0.00 0.00 0.00 0.00 0.00 0.00 0.00 0.01 0.01 0.01 0.01 0.01 0.02 0.03 0.05 0.07 0.04 0.03 0.06 0.06 0.07 0.10 0.17 0.28 0.53 0.47 0.32 0.28 0.24 0.18 0.12 0.08 0.06 0.03 0.01 0.01 0.01 0.01 0.00 0.00 0.00 0.00 0.00
0.00 0.00 0.00 0.00 0.00 0.00 0.00 0.00 0.01 0.01 0.01 0.01 0.02 0.04 0.04 0.05 0.06 0.04 0.03 0.04 0.03 0.05 0.08 0.11 0.19 0.32 0.31 0.22 0.19 0.19 0.15 0.09 0.05 0.04 0.02 0.00 0.00 0.00 0.00 0.00 0.00 0.00 0.00 0.00
0.00 0.00 0.00 0.00 0.00 0.00 0.00 0.00 0.00 0.00 0.01 0.01 0.03 0.07 0.07 0.05 0.04 0.02 0.03 0.03 0.03 0.03 0.05 0.07 0.13 0.19 0.20 0.18 0.17 0.17 0.15 0.10 0.05 0.02 0.01 0.00 0.01 0.01 0.00 0.00 0.00 0.00 0.00 0.00
0.00 0.00 0.00 0.00 0.00 0.00 0.00 0.00 0.00 0.00 0.01 0.02 0.03 0.06 0.06 0.05 0.05 0.03 0.03 0.02 0.03 0.02 0.04 0.06 0.08 0.10 0.13 0.14 0.14 0.16 0.17 0.11 0.06 0.03 0.02 0.01 0.00 0.01 0.00 0.00 0.00 0.00 0.00 0.00
0.00 0.00 0.00 0.00 0.00 0.00 0.00 0.00 0.00 0.00 0.02 0.06 0.06 0.07 0.08 0.07 0.06 0.03 0.02 0.01 0.01 0.01 0.03 0.04 0.06 0.07 0.08 0.11 0.12 0.14 0.15 0.10 0.08 0.04 0.02 0.02 0.01 0.01 0.01 0.01 0.00 0.00 0.00 0.00
0.00 0.00 0.00 0.00 0.00 0.00 0.00 0.00 0.00 0.02 0.06 0.12 0.10 0.12 0.15 0.09 0.04 0.02 0.02 0.01 0.01 0.01 0.03 0.04 0.05 0.04 0.06 0.08 0.10 0.10 0.10 0.12 0.10 0.06 0.03 0.03 0.02 0.01 0.01 0.01 0.00 0.00 0.00 0.00
0.00 0.00 0.00 0.00 0.00 0.00 0.00 0.00 0.01 0.02 0.06 0.12 0.10 0.13 0.16 0.08 0.04 0.02 0.02 0.01 0.01 0.02 0.02 0.02 0.02 0.02 0.04 0.06 0.07 0.08 0.08 0.09 0.09 0.07 0.05 0.03 0.02 0.01 0.01 0.01 0.00 0.00 0.00 0.00
0.00 0.00 0.00 0.00 0.00 0.00 0.01 0.01 0.01 0.02 0.03 0.07 0.09 0.12 0.13 0.05 0.02 0.02 0.01 0.01 0.02 0.01 0.01 0.01 0.01 0.02 0.04 0.05 0.06 0.06 0.07 0.08 0.08 0.05 0.04 0.03 0.02 0.01 0.01 0.00 0.00 0.00 0.00 0.00
0.00 0.00 0.00 0.00 0.00 0.01 0.01 0.01 0.01 0.01 0.01 0.05 0.10 0.14 0.11 0.03 0.03 0.02 0.02 0.01 0.01 0.01 0.01 0.00 0.01 0.02 0.03 0.03 0.04 0.04 0.05 0.06 0.07 0.05 0.04 0.02 0.02 0.01 0.01 0.01 0.00 0.00 0.00 0.00
0.00 0.00 0.00 0.00 0.00 0.01 0.01 0.01 0.01 0.01 0.01 0.04 0.09 0.11 0.11 0.04 0.04 0.03 0.02 0.01 0.02 0.01 0.01 0.01 0.01 0.01 0.01 0.02 0.03 0.04 0.05 0.04 0.05 0.04 0.03 0.02 0.03 0.01 0.01 0.01 0.00 0.01 0.01 0.00
0.00 0.00 0.00 0.00 0.00 0.01 0.01 0.01 0.01 0.01 0.01 0.03 0.07 0.07 0.07 0.05 0.04 0.04 0.03 0.02 0.03 0.03 0.01 0.01 0.02 0.01 0.01 0.03 0.05 0.05 0.05 0.04 0.03 0.03 0.03 0.02 0.02 0.01 0.01 0.01 0.00 0.01 0.01 0.01
0.00 0.00 0.00 0.00 0.01 0.01 0.02 0.03 0.03 0.03 0.02 0.02 0.05 0.07 0.07 0.07 0.07 0.08 0.06 0.03 0.03 0.03 0.02 0.02 0.02 0.02 0.02 0.05 0.06 0.07 0.06 0.04 0.02 0.02 0.02 0.02 0.02 0.02 0.02 0.02 0.02 0.02 0.03 0.03
0.00 0.00 0.00 0.00 0.01 0.01 0.02 0.02 0.03 0.03 0.01 0.01 0.04 0.06 0.07 0.07 0.09 0.06 0.05 0.06 0.05 0.04 0.02 0.02 0.03 0.07 0.06 0.05 0.07 0.09 0.07 0.05 0.04 0.04 0.05 0.04 0.04 0.05 0.04 0.05 0.05 0.07 0.07 0.08
0.01 0.01 0.01 0.01 0.02 0.04 0.04 0.02 0.02 0.02 0.01 0.01 0.02 0.05 0.07 0.12 0.12 0.07 0.07 0.08 0.09 0.05 0.02 0.02 0.03 0.06 0.06 0.05 0.06 0.07 0.07 0.08 0.09 0.12 0.15 0.15 0.13 0.15 0.16 0.13 0.14 0.15 0.15 0.14
0.01 0.01 0.01 0.02 0.03 0.05 0.04 0.02 0.02 0.01 0.01 0.01 0.02 0.04 0.06 0.07 0.10 0.09 0.09 0.09 0.06 0.04 0.03 0.04 0.05 0.05 0.09 0.10 0.10 0.11 0.13 0.15 0.21 0.24 0.26 0.24 0.20 0.20 0.22 0.24 0.25 0.23 0.24 0.25
0.02 0.02 0.03 0.03 0.05 0.06 0.04 0.03 0.02 0.01 0.02 0.02 0.03 0.04 0.06 0.11 0.13 0.08 0.05 0.05 0.04 0.04 0.05 0.05 0.08 0.12 0.14 0.16 0.19 0.23 0.25 0.28 0.38 0.43 0.44 0.46 0.46 0.45 0.40 0.36 0.37 0.40 0.40 0.39
0.04 0.05 0.07 0.07 0.06 0.07 0.05 0.04 0.03 0.02 0.02 0.02 0.03 0.05 0.06 0.08 0.09 0.06 0.04 0.03 0.03 0.04 0.04 0.06 0.08 0.12 0.16 0.19 0.21 0.28 0.34 0.37 0.37 0.38 0.38 0.40 0.42 0.40 0.37 0.37 0.37 0.41 0.44 0.43
0.04 0.07 0.09 0.12 0.13 0.12 0.07 0.06 0.07 0.07 0.07 0.06 0.06 0.09 0.12 0.11 0.09 0.07 0.05 0.03 0.03 0.03 0.04 0.05 0.07 0.10 0.14 0.17 0.21 0.26 0.29 0.26 0.26 0.26 0.21 0.17 0.16 0.16 0.16 0.19 0.23 0.26 0.31 0.36
0.03 0.06 0.13 0.17 0.16 0.16 0.14 0.11 0.12 0.13 0.15 0.10 0.10 0.16 0.16 0.13 0.10 0.08 0.05 0.03 0.03 0.04 0.05 0.05 0.06 0.08 0.09 0.10 0.12 0.13 0.14 0.13 0.13 0.12 0.12 0.08 0.06 0.05 0.05 0.06 0.10 0.15 0.19 0.22
0.06 0.06 0.13 0.20 0.21 0.18 0.18 0.16 0.13 0.15 0.23 0.23 0.18 0.18 0.14 0.11 0.09 0.07 0.05 0.03 0.03 0.03 0.03 0.03 0.04 0.04 0.04 0.04 0.04 0.05 0.06 0.07 0.07 0.07 0.07 0.05 0.04 0.04 0.05 0.07 0.08 0.08 0.09 0.10
0.13 0.12 0.14 0.19 0.23 0.26 0.22 0.15 0.12 0.16 0.22 0.31 0.35 0.33 0.22 0.13 0.07 0.05 0.04 0.02 0.02 0.02 0.02 0.02 0.02 0.02 0.02 0.02 0.01 0.01 0.02 0.02 0.02 0.02 0.02 0.02 0.02 0.03 0.03 0.04 0.04 0.03 0.04 0.04
0.20 0.22 0.21 0.23 0.29 0.31 0.26 0.21 0.20 0.21 0.21 0.31 0.38 0.40 0.32 0.22 0.11 0.06 0.03 0.02 0.01 0.01 0.01 0.01 0.01 0.01 0.00 0.00 0.00 0.00 0.00 0.00 0.01 0.01 0.01 0.01 0.00 0.00 0.00 0.00 0.01 0.01 0.01 0.01
0.19 0.22 0.28 0.30 0.32 0.29 0.23 0.24 0.27 0.39 0.49 0.51 0.51 0.50 0.35 0.24 0.13 0.06 0.03 0.01 0.00 0.00 0.00 0.00 0.00 0.00 0.00 0.00 0.00 0.00 0.00 0.00 0.00 0.00 0.00 0.00 0.00 0.00 0.00 0.00 0.00 0.00 0.00 0.00
0.12 0.11 0.19 0.27 0.31 0.28 0.24 0.24 0.32 0.40 0.54 0.58 0.45 0.33 0.21 0.13 0.08 0.04 0.01 0.00 0.00 0.00 0.00 0.00 0.00 0.00 0.00 0.00 0.00 0.00 0.00 0.00 0.00 0.00 0.00 0.00 0.00 0.00 0.00 0.00 0.00 0.00 0.00 0.00
0.13 0.15 0.19 0.26 0.32 0.31 0.27 0.27 0.32 0.37 0.38 0.45 0.29 0.17 0.11 0.07 0.03 0.01 0.00 0.00 0.00 0.00 0.00 0.00 0.00 0.00 0.00 0.00 0.00 0.00 0.00 0.00 0.00 0.00 0.00 0.00 0.00 0.00 0.00 0.00 0.00 0.00 0.00 0.00
0.18 0.20 0.24 0.26 0.30 0.42 0.38 0.31 0.31 0.36 0.33 0.25 0.15 0.09 0.07 0.04 0.01 0.00 0.00 0.00 0.00 0.00 0.00 0.00 0.00 0.00 0.00 0.00 0.00 0.00 0.00 0.00 0.00 0.00 0.00 0.00 0.00 0.00 0.00 0.00 0.00 0.00 0.00 0.00
MSLP
1011.81 1012.33 1012.55 1012.50 1012.27 1011.97 1011.70 1011.54 1011.53 1011.63 1011.78 1011.90 1011.92 1011.78 1011.47 1011.01 1010.47 1009.95 1009.51 1009.23 1009.13 1009.20 1009.42 1009.72 1010.06 1010.41 1010.74 1011.09 1011.47 1011.92 1012.46 1013.10 1013.82 1014.56 1015.27 1015.88 1016.35 1016.64 1016.77 1016.76 1016.67 1016.56 1016.48 1016.47
1012.13 1012.50 1012.55 1012.36 1012.03 1011.72 1011.53 1011.53 1011.73 1012.06 1012.42 1012.71 1012.81 1012.68 1012.30 1011.72 1011.05 1010.39 1009.85 1009.51 1009.39 1009.48 1009.72 1010.05 1010.40 1010.72 1011.00 1011.26 1011.55 1011.93 1012.42 1013.04 1013.78 1014.57 1015.34 1016.02 1016.55 1016.87 1017.01 1016.98 1016.86 1016.72 1016.62 1016.61
1012.14 1012.35 1012.25 1011.94 1011.57 1011.30 1011.24 1011.46 1011.91 1012.51 1013.12 1013.58 1013.78 1013.66 1013.21 1012.51 1011.70 1010.90 1010.25 1009.83 1009.68 1009.78 1010.05 1010.41 1010.77 1011.07 1011.31 1011.51 1011.72 1012.01 1012.44 1013.03 1013.76 1014.57 1015.39 1016.12 1016.69 1017.05 1017.20 1017.18 1017.05 1016.90 1016.79 1016.77
1011.84 1011.89 1011.65 1011.27 1010.91 1010.74 1010.88 1011.35 1012.11 1013.00 1013.86 1014.51 1014.81 1014.70 1014.19 1013.37 1012.40 1011.45 1010.68 1010.17 1009.99 1010.08 1010.38 1010.77 1011.15 1011.46 1011.68 1011.83 1011.98 1012.20 1012.56 1013.09 1013.78 1014.58 1015.40 1016.15 1016.75 1017.14 1017.31 1017.31 1017.19 1017.05 1016.94 1016.93
1011.30 1011.20 1010.85 1010.43 1010.13 1010.11 1010.48 1011.24 1012.30 1013.49 1014.60 1015.43 1015.83 1015.72 1015.15 1014.21 1013.09 1012.00 1011.10 1010.51 1010.28 1010.37 1010.69 1011.13 1011.55 1011.89 1012.11 1012.24 1012.33 1012.48 1012.77 1013.22 1013.84 1014.59 1015.37 1016.11 1016.71 1017.11 1017.31 1017.33 1017.24 1017.12 1017.03 1017.04
1010.64 1010.39 1009.96 1009.53 1009.32 1009.47 1010.07 1011.11 1012.47 1013.93 1015.26 1016.24 1016.71 1016.61 1015.97 1014.93 1013.69 1012.47 1011.46 1010.80 1010.53 1010.63 1010.98 1011.46 1011.94 1012.32 1012.56 1012.68 1012.74 1012.83 1013.03 1013.39 1013.92 1014.58 1015.30 1015.98 1016.56 1016.96 1017.17 1017.22 1017.16 1017.07 1017.02 1017.05
1009.98 1009.59 1009.09 1008.68 1008.56 1008.88 1009.69 1010.97 1012.56 1014.23 1015.72 1016.81 1017.33 1017.22 1016.53 1015.41 1014.08 1012.77 1011.70 1010.99 1010.71 1010.81 1011.20 1011.74 1012.27 1012.71 1012.98 1013.11 1013.16 1013.19 1013.31 1013.57 1013.99 1014.54 1015.16 1015.77 1016.30 1016.68 1016.89 1016.96 1016.94 1016.89 1016.88 1016.94
1009.41 1008.91 1008.36 1007.98 1007.94 1008.39 1009.36 1010.80 1012.53 1014.32 1015.89 1017.02 1017.56 1017.43 1016.71 1015.55 1014.18 1012.84 1011.74 1011.03 1010.75 1010.89 1011.32 1011.91 1012.51 1012.99 1013.31 1013.46 1013.49 1013.49 1013.54 1013.71 1014.02 1014.45 1014.97 1015.49 1015.95 1016.30 1016.50 1016.59 1016.60 1016.59 1016.61 1016.70
1008.99 1008.41 1007.84 1007.49 1007.51 1008.03 1009.08 1010.58 1012.35 1014.15 1015.71 1016.82 1017.32 1017.17 1016.44 1015.28 1013.93 1012.62 1011.56 1010.89 1010.66 1010.83 1011.31 1011.95 1012.59 1013.12 1013.47 1013.65 1013.68 1013.66 1013.66 1013.76 1013.98 1014.31 1014.73 1015.17 1015.56 1015.87 1016.06 1016.16 1016.19 1016.21 1016.25 1016.37
1008.73 1008.13 1007.57 1007.25 1007.30 1007.85 1008.88 1010.34 1012.02 1013.72 1015.17 1016.18 1016.62 1016.45 1015.73 1014.62 1013.35 1012.14 1011.17 1010.58 1010.42 1010.65 1011.17 1011.83 1012.49 1013.05 1013.43 1013.63 1013.69 1013.66 1013.65 1013.70 1013.86 1014.13 1014.48 1014.85 1015.20 1015.47 1015.64 1015.74 1015.78 1015.81 1015.87 1015.99
1008.63 1008.06 1007.56 1007.27 1007.34 1007.85 1008.79 1010.09 1011.60 1013.08 1014.34 1015.19 1015.53 1015.33 1014.65 1013.65 1012.51 1011.45 1010.64 1010.17 1010.10 1010.38 1010.92 1011.59 1012.25 1012.81 1013.20 1013.42 1013.50 1013.50 1013.50 1013.56 1013.71 1013.95 1014.26 1014.60 1014.91 1015.15 1015.32 1015.40 1015.44 1015.46 1015.51 1015.62
1008.66 1008.19 1007.77 1007.54 1007.61 1008.04 1008.83 1009.91 1011.14 1012.34 1013.34 1013.99 1014.21 1013.98 1013.37 1012.50 1011.55 1010.69 1010.06 1009.75 1009.77 1010.10 1010.65 1011.30 1011.93 1012.46 1012.84 1013.07 1013.18 1013.23 1013.27 1013.38 1013.56 1013.82 1014.13 1014.46 1014.76 1014.98 1015.13 1015.20 1015.21 1015.21 1015.23 1015.30
1008.80 1008.48 1008.19 1008.02 1008.08 1008.41 1009.00 1009.81 1010.72 1011.60 1012.30 1012.73 1012.82 1012.57 1012.04 1011.34 1010.61 1009.98 1009.56 1009.41 1009.54 1009.91 1010.45 1011.06 1011.63 1012.11 1012.47 1012.70 1012.84 1012.94 1013.06 1013.23 1013.47 1013.78 1014.12 1014.46 1014.76 1014.98 1015.10 1015.15 1015.13 1015.09 1015.06 1015.08
1009.06 1008.91 1008.76 1008.67 1008.71 1008.92 1009.31 1009.82 1010.39 1010.93 1011.33 1011.53 1011.50 1011.24 1010.81 1010.30 1009.80 1009.41 1009.22 1009.24 1009.48 1009.89 1010.41 1010.95 1011.46 1011.88 1012.19 1012.42 1012.59 1012.74 1012.93 1013.18 1013.49 1013.86 1014.24 1014.61 1014.91 1015.11 1015.22 1015.23 1015.17 1015.08 1014.99 1014.94
1009.44 1009.46 1009.43 1009.41 1009.43 1009.52 1009.69 1009.91 1010.15 1010.36 1010.47 1010.47 1010.33 1010.08 1009.76 1009.44 1009.19 1009.05 1009.08 1009.27 1009.62 1010.07 1010.57 1011.06 1011.49 1011.84 1012.11 1012.33 1012.51 1012.72 1012.97 1013.29 1013.66 1014.08 1014.49 1014.86 1015.16 1015.35 1015.42 1015.39 1015.29 1015.15 1015.01 1014.90
1009.93 1010.08 1010.14 1010.15 1010.13 1010.10 1010.06 1010.02 1009.96 1009.87 1009.74 1009.56 1009.34 1009.12 1008.92 1008.79 1008.77 1008.88 1009.13 1009.50 1009.96 1010.46 1010.95 1011.40 1011.77 1012.06 1012.29 1012.48 1012.68 1012.91 1013.21 1013.57 1013.98 1014.41 1014.83 1015.19 1015.46 1015.61 1015.65 1015.58 1015.43 1015.25 1015.07 1014.91
1010.50 1010.71 1010.81 1010.81 1010.72 1010.56 1010.33 1010.05 1009.74 1009.40 1009.07 1008.76 1008.49 1008.31 1008.24 1008.31 1008.52 1008.86 1009.32 1009.86 1010.44 1011.00 1011.51 1011.94 1012.27 1012.53 1012.72 1012.90 1013.10 1013.33 1013.64 1014.00 1014.41 1014.83 1015.21 1015.53 1015.75 1015.86 1015.85 1015.74 1015.57 1015.36 1015.15 1014.98
1011.09 1011.28 1011.34 1011.28 1011.09 1010.78 1010.38 1009.91 1009.39 1008.88 1008.41 1008.01 1007.74 1007.62 1007.68 1007.93 1008.34 1008.90 1009.56 1010.27 1010.97 1011.62 1012.17 1012.61 1012.94 1013.18 1013.37 1013.53 1013.71 1013.94 1014.22 1014.56 1014.92 1015.27 1015.59 1015.84 1015.99 1016.04 1015.99 1015.85 1015.67 1015.46 1015.26 1015.10
1011.60 1011.68 1011.64 1011.47 1011.16 1010.71 1010.17 1009.54 1008.89 1008.26 1007.71 1007.29 1007.04 1007.01 1007.19 1007.60 1008.21 1008.95 1009.79 1010.65 1011.48 1012.22 1012.84 1013.33 1013.69 1013.94 1014.13 1014.29 1014.45 1014.65 1014.89 1015.16 1015.44 1015.71 1015.94 1016.10 1016.17 1016.17 1016.08 1015.94 1015.76 1015.59 1015.43 1015.30
1011.92 1011.85 1011.66 1011.34 1010.90 1010.34 1009.68 1008.97 1008.24 1007.57 1007.00 1006.60 1006.42 1006.47 1006.78 1007.33 1008.09 1008.99 1009.98 1010.97 1011.91 1012.75 1013.45 1014.00 1014.41 1014.70 1014.91 1015.07 1015.22 1015.38 1015.56 1015.75 1015.94 1016.11 1016.24 1016.31 1016.32 1016.26 1016.16 1016.03 1015.89 1015.77 1015.67 1015.61
1011.97 1011.72 1011.37 1010.91 1010.36 1009.71 1009.00 1008.25 1007.53 1006.88 1006.36 1006.03 1005.93 1006.08 1006.50 1007.16 1008.03 1009.04 1010.13 1011.23 1012.26 1013.18 1013.96 1014.57 1015.04 1015.38 1015.62 1015.80 1015.94 1016.06 1016.18 1016.30 1016.40 1016.47 1016.51 1016.51 1016.47 1016.39 1016.29 1016.19 1016.11 1016.05 1016.03 1016.05
1011.72 1011.31 1010.82 1010.25 1009.62 1008.94 1008.23 1007.53 1006.87 1006.31 1005.89 1005.67 1005.67 1005.92 1006.43 1007.17 1008.10 1009.17 1010.31 1011.46 1012.54 1013.52 1014.35 1015.02 1015.55 1015.93 1016.21 1016.41 1016.54 1016.65 1016.72 1016.77 1016.80 1016.81 1016.79 1016.74 1016.67 1016.59 1016.52 1016.47 1016.45 1016.47 1016.53 1016.62
1011.20 1010.67 1010.09 1009.47 1008.83 1008.19 1007.55 1006.96 1006.44 1006.02 1005.74 1005.64 1005.75 1006.09 1006.65 1007.43 1008.38 1009.45 1010.58 1011.72 1012.81 1013.79 1014.65 1015.36 1015.93 1016.35 1016.66 1016.88 1017.02 1017.12 1017.17 1017.18 1017.17 1017.14 1017.09 1017.03 1016.96 1016.91 1016.88 1016.89 1016.94 1017.02 1017.15 1017.29
1010.50 1009.92 1009.31 1008.71 1008.14 1007.60 1007.11 1006.68 1006.33 1006.10 1005.98 1006.02 1006.24 1006.64 1007.23 1007.99 1008.90 1009.92 1010.99 1012.07 1013.10 1014.06 1014.90 1015.62 1016.20 1016.65 1016.98 1017.22 1017.38 1017.48 1017.53 1017.54 1017.52 1017.49 1017.44 1017.40 1017.36 1017.36 1017.38 1017.44 1017.55 1017.68 1017.84 1018.01
1009.74 1009.18 1008.63 1008.13 1007.68 1007.30 1007.00 1006.78 1006.64 1006.60 1006.65 1006.83 1007.12 1007.56 1008.14 1008.85 1009.67 1010.58 1011.54 1012.51 1013.46 1014.34 1015.13 1015.82 1016.39 1016.85 1017.20 1017.46 1017.64 1017.76 1017.82 1017.85 1017.86 1017.86 1017.85 1017.85 1017.87 1017.91 1017.99 1018.10 1018.23 1018.39 1018.56 1018.72
1009.08 1008.61 1008.18 1007.81 1007.54 1007.36 1007.27 1007.27 1007.34 1007.48 1007.69 1007.97 1008.32 1008.76 1009.29 1009.92 1010.62 1011.39 1012.21 1013.04 1013.86 1014.64 1015.36 1016.00 1016.54 1016.99 1017.35 1017.63 1017.83 1017.98 1018.08 1018.15 1018.20 1018.25 1018.30 1018.36 1018.43 1018.53 1018.65 1018.79 1018.94 1019.09 1019.24 1019.36
Thickness
5796 5779 5768 5778 5783 5781 5781 5779 5777 5788 5804 5787 5773 5767 5770 5771 5766 5758 5752 5749 5744 5740 5737 5734 5730 5731 5730 5733 5733 5734 5736 5737 5738 5737 5735 5733 5732 5733 5734 5735 5736 5737 5738 5738
5774 5769 5790 5797 5798 5794 5789 5780 5781 5788 5798 5783 5766 5762 5768 5768 5764 5759 5752 5747 5744 5738 5734 5731 5729 5728 5728 5730 5731 5732 5734 5735 5736 5737 5736 5735 5733 5732 5733 5733 5734 5735 5736 5736
5764 5783 5800 5795 5791 5788 5789 5786 5785 5783 5781 5775 5763 5749 5754 5764 5766 5761 5756 5750 5745 5741 5736 5732 5730 5728 5729 5729 5730 5732 5732 5734 5735 5736 5735 5733 5731 5729 5728 5729 5731 5733 5734 5734
5774 5793 5793 5788 5787 5791 5778 5799 5796 5787 5765 5743 5750 5723 5741 5752 5753 5754 5752 5747 5744 5742 5737 5734 5732 5730 5729 5730 5732 5731 5730 5731 5733 5734 5733 5731 5728 5725 5727 5729 5730 5732 5732 5732
5774 5789 5785 5781 5790 5796 5790 5799 5789 5777 5756 5738 5738 5726 5732 5747 5743 5747 5750 5748 5746 5744 5740 5737 5735 5733 5732 5732 5732 5731 5729 5730 5731 5732 5732 5731 5728 5728 5728 5728 5728 5729 5730 5731
5785 5799 5796 5794 5804 5805 5802 5785 5771 5756 5740 5720 5727 5721 5723 5739 5745 5747 5749 5750 5748 5746 5744 5740 5738 5736 5734 5734 5732 5731 5729 5729 5731 5731 5730 5730 5728 5727 5726 5725 5725 5726 5727 5728
5770 5786 5800 5805 5792 5798 5794 5762 5735 5727 5714 5711 5727 5723 5728 5754 5760 5756 5752 5751 5750 5749 5745 5741 5739 5736 5734 5734 5733 5731 5729 5729 5730 5730 5729 5730 5729 5728 5727 5726 5725 5724 5724 5725
5749 5756 5788 5801 5793 5783 5783 5767 5733 5717 5711 5709 5719 5718 5739 5764 5768 5765 5761 5756 5753 5749 5747 5745 5742 5740 5737 5736 5735 5733 5731 5729 5729 5729 5729 5730 5730 5728 5728 5727 5726 5725 5725 5726
5753 5760 5798 5808 5810 5799 5777 5767 5765 5737 5724 5705 5711 5725 5744 5764 5763 5761 5759 5755 5752 5751 5750 5748 5746 5743 5740 5739 5738 5737 5734 5732 5731 5730 5729 5729 5729 5729 5728 5728 5728 5727 5726 5726
5771 5758 5785 5803 5806 5802 5793 5778 5753 5735 5714 5704 5707 5716 5724 5746 5750 5754 5754 5753 5753 5753 5753 5752 5750 5748 5746 5743 5741 5739 5737 5734 5732 5731 5730 5731 5730 5730 5729 5728 5727 5726 5726 5726
5773 5753 5765 5779 5778 5776 5781 5773 5755 5737 5729 5708 5696 5714 5752 5752 5755 5754 5756 5758 5757 5756 5755 5754 5753 5752 5750 5746 5743 5740 5738 5735 5733 5732 5731 5731 5730 5729 5728 5727 5727 5727 5726 5725
5767 5750 5740 5758 5783 5795 5785 5773 5757 5736 5729 5722 5711 5722 5767 5762 5762 5761 5760 5761 5761 5759 5758 5757 5757 5754 5750 5746 5744 5741 5739 5737 5735 5734 5732 5730 5729 5728 5726 5726 5726 5725 5724 5722
5761 5739 5723 5732 5749 5766 5767 5769 5760 5746 5732 5718 5711 5727 5762 5762 5761 5764 5764 5762 5761 5760 5758 5757 5756 5753 5750 5747 5745 5742 5739 5737 5735 5733 5730 5727 5725 5724 5723 5723 5723 5721 5720 5718
5760 5731 5721 5714 5724 5739 5745 5756 5758 5744 5725 5721 5726 5736 5748 5754 5757 5760 5761 5760 5758 5756 5755 5754 5751 5750 5748 5746 5744 5742 5739 5737 5734 5729 5726 5723 5721 5720 5719 5718 5717 5715 5714 5712
5739 5719 5722 5728 5739 5743 5744 5751 5755 5748 5742 5732 5737 5741 5748 5755 5757 5759 5758 5755 5752 5749 5748 5747 5745 5743 5743 5740 5739 5737 5735 5732 5729 5724 5720 5718 5716 5715 5714 5712 5710 5709 5707 5706
5722 5712 5714 5718 5734 5737 5739 5749 5753 5753 5752 5747 5744 5741 5756 5757 5756 5753 5751 5749 5744 5741 5740 5739 5737 5735 5734 5733 5731 5729 5726 5723 5720 5717 5713 5711 5709 5707 5705 5703 5702 5701 5699 5699
5705 5700 5696 5696 5714 5722 5717 5734 5740 5745 5751 5749 5739 5746 5753 5747 5747 5745 5744 5742 5737 5733 5731 5729 5726 5725 5724 5723 5722 5718 5716 5714 5711 5707 5704 5702 5699 5696 5694 5693 5692 5691 5690 5689
5696 5688 5680 5680 5693 5686 5715 5735 5741 5741 5748 5752 5752 5751 5749 5742 5738 5738 5738 5735 5730 5725 5721 5718 5716 5714 5712 5711 5710 5707 5705 5703 5699 5695 5692 5690 5688 5685 5683 5683 5681 5679 5678 5677
5691 5682 5671 5666 5668 5683 5708 5720 5723 5722 5728 5743 5745 5741 5738 5736 5729 5721 5724 5725 5721 5716 5712 5709 5706 5704 5701 5699 5698 5696 5693 5690 5687 5683 5680 5679 5677 5674 5672 5671 5669 5667 5666 5663
5679 5674 5664 5659 5661 5666 5692 5711 5721 5717 5708 5731 5736 5734 5732 5730 5713 5704 5710 5711 5709 5706 5703 5700 5697 5694 5690 5687 5687 5684 5679 5676 5673 5670 5669 5667 5665 5663 5661 5659 5658 5656 5654 5651
5660 5658 5656 5653 5654 5669 5692 5703 5709 5692 5701 5719 5724 5725 5722 5717 5714 5705 5702 5700 5698 5696 5692 5690 5687 5682 5678 5676 5675 5670 5667 5663 5661 5660 5658 5656 5654 5652 5650 5648 5646 5644 5641 5638
5651 5649 5650 5650 5650 5662 5689 5693 5692 5697 5709 5715 5713 5712 5709 5705 5700 5695 5693 5690 5688 5685 5682 5680 5677 5671 5667 5665 5664 5659 5655 5653 5652 5650 5648 5645 5644 5643 5640 5637 5635 5632 5629 5626
5651 5653 5652 5655 5661 5675 5685 5689 5695 5700 5703 5707 5705 5701 5701 5695 5689 5685 5682 5680 5678 5675 5671 5669 5667 5662 5658 5655 5653 5649 5645 5644 5642 5639 5636 5634 5633 5631 5629 5626 5623 5620 5617 5614
5654 5658 5654 5657 5664 5673 5681 5688 5692 5696 5700 5700 5699 5692 5689 5687 5682 5676 5673 5671 5668 5664 5661 5659 5656 5652 5647 5645 5643 5639 5637 5634 5632 5628 5625 5623 5620 5619 5617 5615 5612 5609 5605 5601
5655 5656 5655 5657 5664 5670 5677 5682 5686 5690 5692 5690 5686 5683 5681 5678 5672 5668 5664 5661 5659 5655 5652 5650 5646 5641 5637 5634 5632 5629 5627 5624 5620 5617 5615 5612 5610 5607 5605 5602 5599 5596 5592 5588
5659 5658 5656 5656 5663 5663 5667 5675 5682 5682 5680 5679 5676 5670 5668 5668 5663 5658 5654 5652 5649 5646 5643 5639 5635 5631 5627 5623 5620 5618 5616 5613 5609 5606 5603 5600 5597 5595 5592 5588 5583 5580 5577 5573